CW8284 Weather Reports


Display with metric or nautical units.
time (UTC)temp
F
wind
direction
speed
MPH
gust
MPH
rain 1hr
in
rain 24hr
in
rain mn
in
humidity
%
barometer
mb
20260508041513 63 202 0.0 1.0 0.00 0.00 0.00 1013.9
20260508041413 63 180 1.0 1.0 0.00 0.00 0.00 1014.1
20260508041313 63 225 2.0 2.0 0.00 0.00 0.00 1014.0
20260508041213 63 225 1.0 2.0 0.00 0.00 0.00 1014.2
20260508040513 64 225 2.0 3.0 0.00 0.00 0.00 1014.0
20260508035813 64 202 1.0 3.0 0.00 0.00 0.00 1013.8
20260508034813 64 225 1.0 2.0 0.00 0.00 0.00 1013.5
20260508034713 64 157 1.0 3.0 0.00 0.00 0.00 1013.1
20260508034013 65 180 1.0 2.0 0.00 0.00 0.00 1013.3
20260508033614 65 180 0.0 1.0 0.00 0.00 0.00 1013.2
20260508033513 65 157 2.0 2.0 0.00 0.00 0.00 1013.3
20260508033113 65 202 2.0 4.0 0.00 0.00 0.00 1013.0
20260508031513 66 270 2.0 3.0 0.00 0.00 0.00 1012.9
20260508031113 66 202 2.0 3.0 0.00 0.00 0.00 1012.9
20260508031014 66 202 2.0 4.0 0.00 0.00 0.00 1012.9
20260508030913 66 225 1.0 2.0 0.00 0.00 0.00 1012.8
20260508030513 66 225 3.0 4.0 0.00 0.00 0.00 1012.8
20260508030413 66 202 2.0 3.0 0.00 0.00 0.00 1012.9
20260508030313 66 225 2.0 3.0 0.00 0.00 0.00 1012.8
20260508030213 66 225 2.0 4.0 0.00 0.00 0.00 1012.8
20260508025813 67 202 2.0 3.0 0.00 0.00 0.00 1012.6
20260508025413 67 202 4.0 5.0 0.00 0.00 0.00 1012.6
20260508025013 67 202 3.0 4.0 0.00 0.00 0.00 1012.6
20260508024913 67 180 2.0 3.0 0.00 0.00 0.00 1012.6
20260508024513 67 202 3.0 5.0 0.00 0.00 0.00 1012.6
20260508023213 68 202 2.0 2.0 0.00 0.00 0.00 1012.5
20260508023113 68 90 3.0 5.0 0.00 0.00 0.00 1012.5
20260508022713 68 90 2.0 2.0 0.00 0.00 0.00 1012.3
20260508022313 68 202 1.0 2.0 0.00 0.00 0.00 1012.3
20260508022213 68 270 2.0 4.0 0.00 0.00 0.00 1012.1
20260508021813 69 135 1.0 2.0 0.00 0.00 0.00 1012.1
20260508021713 69 112 1.0 2.0 0.00 0.00 0.00 1012.1
20260508021613 69 157 3.0 4.0 0.00 0.00 0.00 1012.2
20260508020913 69 202 1.0 3.0 0.00 0.00 0.00 1012.0
20260508020813 69 157 4.0 9.0 0.00 0.00 0.00 1012.1
20260508020713 69 225 4.0 6.0 0.00 0.00 0.00 1012.1
20260508020614 69 157 3.0 6.0 0.00 0.00 0.00 1012.1
20260508020513 69 202 2.0 4.0 0.00 0.00 0.00 1012.2
20260508020113 70 225 4.0 8.0 0.00 0.00 0.00 1012.0
20260508014813 71 225 2.0 4.0 0.00 0.00 0.00 1011.6
20260508013213 72 135 3.0 4.0 0.00 0.00 0.00 1011.6
20260508013113 72 202 3.0 5.0 0.00 0.00 0.00 1011.6
20260508013013 72 292 4.0 6.0 0.00 0.00 0.00 1011.6
20260508012013 73 202 3.0 4.0 0.00 0.00 0.00 1011.6
20260508011613 73 225 3.0 6.0 0.00 0.00 0.00 1011.7
20260508010913 73 225 6.0 8.0 0.00 0.00 0.00 1011.6
20260508010813 74 225 5.0 9.0 0.00 0.00 0.00 1011.6
20260508004313 75 225 4.0 6.0 0.00 0.00 0.00 1011.5
20260508004213 75 270 3.0 5.0 0.00 0.00 0.00 1011.5
20260508004113 75 180 2.0 3.0 0.00 0.00 0.00 1011.6
20260508004013 75 180 2.0 4.0 0.00 0.00 0.00 1011.5
20260508003913 75 180 3.0 5.0 0.00 0.00 0.00 1011.7
20260508003514 75 180 3.0 4.0 0.00 0.00 0.00 1011.6
20260508002513 76 202 5.0 7.0 0.00 0.00 0.00 1011.6
20260508002113 76 157 6.0 9.0 0.00 0.00 0.00 1011.5
20260508001713 76 225 4.0 6.0 0.00 0.00 0.00 1011.5
20260508001613 76 180 4.0 6.0 0.00 0.00 0.00 1011.6
20260508001513 76 202 5.0 7.0 0.00 0.00 0.00 1011.6
20260508001113 76 135 2.0 3.0 0.00 0.00 0.00 1011.6
20260508001013 76 180 3.0 4.0 0.00 0.00 0.00 1011.6
20260508000913 76 202 4.0 7.0 0.00 0.00 0.00 1011.5
20260508000213 77 135 4.0 6.0 0.00 0.00 0.00 1011.6
20260508000113 77 202 4.0 7.0 0.00 0.00 0.00 1011.7
20260508000014 77 225 6.0 8.0 0.00 0.00 0.00 1011.6
20260507235913 77 225 7.0 11.0 0.00 0.00 0.00 1011.6
20260507235213 77 225 4.0 9.0 0.00 0.00 0.00 1011.6
20260507233913 78 180 1.0 2.0 0.00 0.00 0.00 1011.4
20260507233813 78 180 3.0 4.0 0.00 0.00 0.00 1011.6
20260507232813 78 180 3.0 6.0 0.00 0.00 0.00 1011.6
20260507232713 78 180 3.0 7.0 0.00 0.00 0.00 1011.7
20260507232613 78 225 5.0 12.0 0.00 0.00 0.00 1011.6
20260507232213 78 135 5.0 8.0 0.00 0.00 0.00 1011.7
20260507232113 78 225 3.0 7.0 0.00 0.00 0.00 1011.5
20260507231713 79 225 5.0 8.0 0.00 0.00 0.00 1011.7
20260507231613 79 247 5.0 8.0 0.00 0.00 0.00 1011.7
20260507231513 80 202 3.0 8.0 0.00 0.00 0.00 1011.6
20260507230813 79 202 5.0 8.0 0.00 0.00 0.00 1011.7
20260507230113 81 225 8.0 12.0 0.00 0.00 0.00 1011.7
20260507225713 81 225 3.0 5.0 0.00 0.00 0.00 1011.9
20260507225313 81 157 5.0 8.0 0.00 0.00 0.00 1011.6
20260507224913 81 202 7.0 11.0 0.00 0.00 0.00 1011.6
20260507224514 82 202 7.0 9.0 0.00 0.00 0.00 1011.7
20260507223213 82 157 5.0 9.0 0.00 0.00 0.00 1012.0
20260507222513 82 157 3.0 4.0 0.00 0.00 0.00 1011.9
20260507222413 82 180 3.0 4.0 0.00 0.00 0.00 1011.8
20260507222013 83 180 7.0 12.0 0.00 0.00 0.00 1012.0
20260507221613 83 247 5.0 7.0 0.00 0.00 0.00 1012.1
20260507221213 83 202 5.0 13.0 0.00 0.00 0.00 1012.1
20260507220513 84 180 3.0 5.0 0.00 0.00 0.00 1012.0
20260507220113 84 202 2.0 4.0 0.00 0.00 0.00 1011.9
20260507214813 84 112 2.0 4.0 0.00 0.00 0.00 1012.3
20260507213813 85 180 6.0 9.0 0.00 0.00 0.00 1012.3
20260507213413 85 202 5.0 10.0 0.00 0.00 0.00 1012.0
20260507212713 85 225 3.0 4.0 0.00 0.00 0.00 1012.2
20260507211413 85 202 3.0 4.0 0.00 0.00 0.00 1012.7
20260507211013 86 180 4.0 7.0 0.00 0.00 0.00 1012.7
20260507210913 86 157 2.0 4.0 0.00 0.00 0.00 1012.6
20260507210513 85 202 3.0 5.0 0.00 0.00 0.00 1012.5
20260507205813 85 157 4.0 6.0 0.00 0.00 0.00 1012.6
20260507204813 86 202 2.0 5.0 0.00 0.00 0.00 1012.8
20260507204713 85 180 3.0 6.0 0.00 0.00 0.00 1012.9
20260507202813 83 225 4.0 7.0 0.00 0.00 0.00 1012.9
20260507202713 83 225 3.0 5.0 0.00 0.00 0.00 1013.1
20260507202313 83 202 2.0 4.0 0.00 0.00 0.00 1013.0
20260507201013 82 225 2.0 4.0 0.00 0.00 0.00 1013.3
20260507200613 82 135 1.0 2.0 0.00 0.00 0.00 1013.4
20260507195313 80 157 4.0 6.0 0.00 0.00 0.00 1013.5
20260507195213 80 225 4.0 5.0 0.00 0.00 0.00 1013.4
20260507194813 80 157 3.0 6.0 0.00 0.00 0.00 1013.7
20260507194713 80 225 5.0 8.0 0.00 0.00 0.00 1013.4
20260507194013 79 202 4.0 5.0 0.00 0.00 0.00 1013.6
20260507193313 79 157 1.0 3.0 0.00 0.00 0.00 1013.5
20260507191113 77 292 3.0 6.0 0.00 0.00 0.00 1013.8
20260507190713 77 157 3.0 6.0 0.00 0.00 0.00 1013.8
20260507190013 77 225 2.0 4.0 0.00 0.00 0.00 1014.0
20260507185913 77 225 4.0 6.0 0.00 0.00 0.00 1014.0
20260507185813 77 225 2.0 4.0 0.00 0.00 0.00 1013.9
20260507185713 77 157 2.0 4.0 0.00 0.00 0.00 1014.0
20260507185613 78 225 4.0 7.0 0.00 0.00 0.00 1013.9
20260507185513 78 225 1.0 3.0 0.00 0.00 0.00 1013.9
20260507184514 75 67 2.0 2.0 0.00 0.00 0.00 1014.1
20260507184413 75 225 1.0 2.0 0.00 0.00 0.00 1014.1
20260507184013 75 180 1.0 1.0 0.00 0.00 0.00 1014.2
20260507183613 75 180 2.0 3.0 0.00 0.00 0.00 1014.5
20260507183513 75 180 2.0 4.0 0.00 0.00 0.00 1014.3
20260507183113 74 225 4.0 5.0 0.00 0.00 0.00 1014.5
20260507182413 74 225 3.0 5.0 0.00 0.00 0.00 1014.2
20260507182013 74 202 2.0 3.0 0.00 0.00 0.00 1014.3
20260507181913 74 90 2.0 4.0 0.00 0.00 0.00 1014.3
20260507181813 74 157 1.0 2.0 0.00 0.00 0.00 1014.5
20260507181713 74 202 2.0 3.0 0.00 0.00 0.00 1014.4
20260507181013 74 180 2.0 5.0 0.00 0.00 0.00 1014.2
20260507180013 73 157 2.0 3.0 0.00 0.00 0.00 1014.2
20260507175613 73 315 2.0 3.0 0.00 0.00 0.00 1014.4
20260507174913 72 292 3.0 6.0 0.00 0.00 0.00 1014.6
20260507174514 72 135 2.0 5.0 0.00 0.00 0.00 1014.7
20260507172913 70 202 1.0 2.0 0.00 0.00 0.00 1014.5
20260507171913 71 225 3.0 6.0 0.00 0.00 0.00 1014.9
20260507171514 70 225 0.0 1.0 0.00 0.00 0.00 1014.6
20260507171413 69 157 1.0 1.0 0.00 0.00 0.00 1014.6
20260507171313 69 90 1.0 2.0 0.00 0.00 0.00 1014.6
20260507171213 69 225 2.0 3.0 0.00 0.00 0.00 1014.6
20260507170513 69 292 1.0 2.0 0.00 0.00 0.00 1014.9
20260507170413 69 180 2.0 4.0 0.00 0.00 0.00 1014.9
20260507170013 69 202 2.0 4.0 0.00 0.00 0.00 1014.8
20260507165913 69 202 1.0 2.0 0.00 0.00 0.00 1014.8
20260507165513 68 225 2.0 4.0 0.00 0.00 0.00 1014.8
20260507165413 68 225 1.0 2.0 0.00 0.00 0.00 1014.8
20260507164113 67 225 1.0 2.0 0.00 0.00 0.00 1014.6
20260507164013 67 225 1.0 3.0 0.00 0.00 0.00 1014.7
20260507163013 68 225 4.0 5.0 0.00 0.00 0.00 1015.2
20260507162313 69 225 2.0 3.0 0.00 0.00 0.00 1015.1
20260507162213 69 270 1.0 2.0 0.00 0.00 0.00 1015.1
20260507160613 65 202 0.0 1.0 0.00 0.00 0.00 1015.4
20260507160213 65 157 1.0 1.0 0.00 0.00 0.00 1014.9
20260507160113 65 225 0.0 1.0 0.00 0.00 0.00 1015.3
20260507160013 65 180 1.0 2.0 0.00 0.00 0.00 1015.1
20260507155913 65 225 1.0 2.0 0.00 0.00 0.00 1015.2
20260507155813 65 180 1.0 2.0 0.00 0.00 0.00 1015.3
20260507155413 65 90 1.0 2.0 0.00 0.00 0.00 1015.1
20260507155013 64 157 0.0 0.0 0.00 0.00 0.00 1015.4
20260507154913 64 247 0.0 0.0 0.00 0.00 0.00 1015.3
20260507154514 64 225 1.0 2.0 0.00 0.00 0.00 1015.2
20260507153813 66 180 1.0 2.0 0.00 0.00 0.00 1015.1
20260507153113 66 202 1.0 2.0 0.00 0.00 0.00 1015.3
20260507152715 66 270 1.0 2.0 0.00 0.00 0.00 1015.1
20260507152613 66 0 0.0 1.0 0.00 0.00 0.00 1015.0
20260507152513 66 45 1.0 2.0 0.00 0.00 0.00 1015.2
20260507152414 65 67 1.0 2.0 0.00 0.00 0.00 1015.3
20260507151714 64 225 2.0 3.0 0.00 0.00 0.00 1015.4
20260507151013 64 157 1.0 2.0 0.00 0.00 0.00 1015.5
20260507150913 64 135 1.0 2.0 0.00 0.00 0.00 1015.1
20260507150213 65 202 0.0 1.0 0.00 0.00 0.00 1015.3
20260507150113 65 157 1.0 1.0 0.00 0.00 0.00 1015.1
20260507145113 63 90 0.0 1.0 0.00 0.00 0.00 1015.0
20260507145013 63 45 0.0 0.0 0.00 0.00 0.00 1015.3
20260507144915 63 112 0.0 0.0 0.00 0.00 0.00 1015.3
20260507144514 62 90 0.0 1.0 0.00 0.00 0.00 1015.1
20260507144113 62 247 0.0 0.0 0.00 0.00 0.00 1015.2
20260507142813 60 157 0.0 0.0 0.00 0.00 0.00 1015.2
20260507142713 60 180 0.0 1.0 0.00 0.00 0.00 1015.1
20260507141413 58 180 0.0 0.0 0.00 0.00 0.00 1015.1
20260507141313 58 180 0.0 0.0 0.00 0.00 0.00 1015.0
20260507141213 57 180 0.0 0.0 0.00 0.00 0.00 1014.9
20260507141113 57 180 0.0 0.0 0.00 0.00 0.00 1014.8
20260507140713 55 202 0.0 0.0 0.00 0.00 0.00 1014.7
20260507140314 53 135 0.0 0.0 0.00 0.00 0.00 1015.1
20260507140213 52 135 0.0 0.0 0.00 0.00 0.00 1015.0
20260507135213 50 135 0.0 0.0 0.00 0.00 0.00 1014.5
20260507134813 50 135 0.0 0.0 0.00 0.00 0.00 1014.5
20260507133513 49 202 0.0 0.0 0.00 0.00 0.00 1014.4
20260507133413 49 202 0.0 0.0 0.00 0.00 0.00 1014.5
20260507132413 48 337 0.0 0.0 0.00 0.00 0.00 1014.6
20260507132314 48 337 0.0 0.0 0.00 0.00 0.00 1014.6
20260507131913 48 337 0.0 0.0 0.00 0.00 0.00 1014.6
20260507131814 48 337 0.0 0.0 0.00 0.00 0.00 1014.6
20260507131413 48 337 0.0 0.0 0.00 0.00 0.00 1014.7
20260507130713 49 337 0.0 0.0 0.00 0.00 0.00 1014.3
20260507130613 49 337 0.0 0.0 0.00 0.00 0.00 1014.4
20260507130213 49 337 0.0 0.0 0.00 0.00 0.00 1014.2
20260507125814 49 337 0.0 0.0 0.00 0.00 0.00 1014.4
20260507124513 49 315 1.0 1.0 0.00 0.00 0.00 1014.0
20260507124413 49 315 1.0 1.0 0.00 0.00 0.00 1014.1
20260507124313 49 315 0.0 1.0 0.00 0.00 0.00 1014.1
20260507123313 49 337 1.0 1.0 0.00 0.00 0.00 1014.3
20260507123213 49 337 1.0 1.0 0.00 0.00 0.00 1014.2
20260507121613 48 337 0.0 0.0 0.00 0.00 0.00 1014.5
20260507121513 48 337 0.0 0.0 0.00 0.00 0.00 1014.3
20260507121113 48 337 0.0 0.0 0.00 0.00 0.00 1014.2
20260507121013 48 337 0.0 0.0 0.00 0.00 0.00 1014.3
20260507120913 48 337 0.0 0.0 0.00 0.00 0.00 1014.2
20260507120213 49 337 0.0 0.0 0.00 0.00 0.00 1014.1
20260507120113 49 337 0.0 0.0 0.00 0.00 0.00 1014.2
20260507120013 49 337 0.0 0.0 0.00 0.00 0.00 1014.3
20260507115913 49 337 0.0 0.0 0.00 0.00 0.00 1014.2
20260507115513 49 337 0.0 0.0 0.00 0.00 0.00 1014.3
20260507115113 48 292 0.0 1.0 0.00 0.00 0.00 1014.2
20260507115013 48 292 1.0 1.0 0.00 0.00 0.00 1014.2
20260507114913 49 315 0.0 0.0 0.00 0.00 0.00 1014.2
20260507114813 49 315 0.0 0.0 0.00 0.00 0.00 1014.4
20260507114713 49 315 0.0 0.0 0.00 0.00 0.00 1014.3
20260507114013 48 315 0.0 0.0 0.00 0.00 0.00 1014.2
20260507113913 48 315 0.0 0.0 0.00 0.00 0.00 1014.3
20260507113513 48 292 0.0 0.0 0.00 0.00 0.00 1014.2
20260507113414 48 292 0.0 0.0 0.00 0.00 0.00 1014.3
20260507113313 48 292 0.0 0.0 0.00 0.00 0.00 1014.4
20260507112313 49 292 0.0 0.0 0.00 0.00 0.00 1014.5
20260507111613 49 292 0.0 0.0 0.00 0.00 0.00 1014.4
20260507111513 49 292 0.0 0.0 0.00 0.00 0.00 1014.5
20260507111113 49 292 0.0 0.0 0.00 0.00 0.00 1014.5
20260507111013 49 292 0.0 0.0 0.00 0.00 0.00 1014.5
20260507110613 49 292 0.0 0.0 0.00 0.00 0.00 1014.6
20260507105913 49 292 0.0 0.0 0.00 0.00 0.00 1014.5
20260507105213 49 270 0.0 0.0 0.00 0.00 0.00 1014.7
20260507105115 49 270 0.0 0.0 0.00 0.00 0.00 1014.6
20260507104413 49 292 0.0 0.0 0.00 0.00 0.00 1014.7
20260507104313 49 292 0.0 0.0 0.00 0.00 0.00 1014.8
20260507104213 49 315 0.0 0.0 0.00 0.00 0.00 1014.5
20260507103513 49 270 0.0 0.0 0.00 0.00 0.00 1014.7
20260507103413 49 337 0.0 0.0 0.00 0.00 0.00 1014.8
20260507102713 49 337 0.0 0.0 0.00 0.00 0.00 1014.7
20260507102613 49 315 0.0 0.0 0.00 0.00 0.00 1014.6
20260507101913 50 315 0.0 0.0 0.00 0.00 0.00 1014.7
20260507101213 50 315 0.0 1.0 0.00 0.00 0.00 1014.8
20260507100813 50 292 0.0 0.0 0.00 0.00 0.00 1014.7
20260507100413 50 337 0.0 0.0 0.00 0.00 0.00 1014.8
20260507100314 50 337 1.0 1.0 0.00 0.00 0.00 1014.8
20260507100213 50 337 1.0 1.0 0.00 0.00 0.00 1014.6
20260507100113 50 337 0.0 1.0 0.00 0.00 0.00 1014.9
20260507100013 50 0 0.0 0.0 0.00 0.00 0.00 1014.8
20260507095613 50 337 0.0 0.0 0.00 0.00 0.00 1014.8
20260507094913 50 337 0.0 0.0 0.00 0.00 0.00 1014.9
20260507094813 50 337 0.0 0.0 0.00 0.00 0.00 1015.0
20260507094713 50 337 0.0 0.0 0.00 0.00 0.00 1014.9
20260507094013 50 337 0.0 0.0 0.00 0.00 0.00 1014.9
20260507093613 50 315 0.0 0.0 0.00 0.00 0.00 1014.9
20260507093213 51 337 0.0 0.0 0.00 0.00 0.00 1015.0
20260507093113 51 337 0.0 0.0 0.00 0.00 0.00 1015.0
20260507093013 51 337 0.0 0.0 0.00 0.00 0.00 1015.1
20260507092913 51 337 0.0 0.0 0.00 0.00 0.00 1015.0
20260507092513 51 315 0.0 0.0 0.00 0.00 0.00 1015.0
20260507091513 51 0 0.0 0.0 0.00 0.00 0.00 1015.4
20260507090213 51 22 1.0 1.0 0.00 0.00 0.00 1015.3
20260507090113 51 22 1.0 1.0 0.00 0.00 0.00 1015.2
20260507090013 51 22 1.0 1.0 0.00 0.00 0.00 1015.2
20260507085913 51 22 0.0 1.0 0.00 0.00 0.00 1015.3
20260507084013 52 22 0.0 0.0 0.00 0.00 0.00 1015.6
20260507082713 52 292 0.0 0.0 0.00 0.00 0.00 1015.8
20260507081713 52 292 0.0 0.0 0.00 0.00 0.00 1015.7
20260507081613 52 292 0.0 0.0 0.00 0.00 0.00 1015.8
20260507081513 52 292 0.0 0.0 0.00 0.00 0.00 1015.6
20260507081413 52 292 0.0 0.0 0.00 0.00 0.00 1015.6
20260507080413 52 292 0.0 0.0 0.00 0.00 0.00 1016.0
20260507080313 52 292 0.0 0.0 0.00 0.00 0.00 1015.8
20260507080213 52 292 0.0 0.0 0.00 0.00 0.00 1015.6
20260507075213 53 292 0.0 0.0 0.00 0.00 0.00 1015.8
20260507074814 53 247 0.0 0.0 0.00 0.00 0.00 1015.6
20260507074413 53 202 0.0 1.0 0.00 0.00 0.00 1015.8
20260507074313 53 180 0.0 0.0 0.00 0.00 0.00 1015.9
20260507073913 53 180 0.0 0.0 0.00 0.00 0.00 1015.8
20260507073813 53 180 0.0 0.0 0.00 0.00 0.00 1015.9
20260507073713 53 157 0.0 0.0 0.00 0.00 0.00 1016.0
20260507073613 53 157 0.0 0.0 0.00 0.00 0.00 1016.0
20260507073513 53 157 0.0 0.0 0.00 0.00 0.00 1015.8
20260507072813 53 202 0.0 0.0 0.00 0.00 0.00 1015.6
20260507072713 53 202 0.0 0.0 0.00 0.00 0.00 1015.7
20260507071713 53 202 0.0 0.0 0.00 0.00 0.00 1015.7
20260507071313 53 180 0.0 0.0 0.00 0.00 0.00 1015.9
20260507070913 53 337 0.0 0.0 0.00 0.00 0.00 1015.8
20260507070513 53 315 0.0 0.0 0.00 0.00 0.00 1016.0
20260507070413 53 315 0.0 0.0 0.00 0.00 0.00 1015.7
20260507070313 53 315 0.0 0.0 0.00 0.00 0.00 1015.8
20260507070213 53 315 0.0 0.0 0.00 0.00 0.00 1015.9
20260507064614 54 315 0.0 0.0 0.00 0.00 0.00 1015.7
20260507064513 54 315 0.0 0.0 0.00 0.00 0.00 1015.8
20260507064413 54 315 0.0 0.0 0.00 0.00 0.00 1015.9
20260507064313 54 315 0.0 0.0 0.00 0.00 0.00 1016.0
20260507064213 54 315 0.0 0.0 0.00 0.00 0.00 1016.0
20260507063813 54 315 0.0 0.0 0.00 0.00 0.00 1016.0
20260507062513 55 247 0.0 0.0 0.00 0.00 0.00 1016.0
20260507062413 55 247 0.0 0.0 0.00 0.00 0.00 1016.1
20260507062313 55 247 0.0 0.0 0.00 0.00 0.00 1016.0
20260507062213 55 247 0.0 0.0 0.00 0.00 0.00 1016.0
20260507062114 55 202 0.0 0.0 0.00 0.00 0.00 1016.0
20260507061713 56 202 0.0 0.0 0.00 0.00 0.00 1016.2
20260507061613 56 202 0.0 0.0 0.00 0.00 0.00 1015.9
20260507060913 57 157 0.0 0.0 0.00 0.00 0.00 1015.9
20260507060513 57 157 0.0 0.0 0.00 0.00 0.00 1016.2
20260507055213 58 180 1.0 1.0 0.00 0.00 0.00 1016.0
20260507054513 58 225 1.0 2.0 0.00 0.00 0.00 1015.8
20260507054113 58 225 1.0 1.0 0.00 0.00 0.00 1015.6
20260507054013 58 202 1.0 2.0 0.00 0.00 0.00 1015.7
20260507053613 59 202 1.0 2.0 0.00 0.00 0.00 1015.8
20260507053513 59 225 0.0 1.0 0.00 0.00 0.00 1015.9
20260507053113 59 225 1.0 2.0 0.00 0.00 0.00 1015.9
20260507052713 59 225 2.0 3.0 0.00 0.00 0.00 1015.7
20260507052013 59 202 0.0 1.0 0.00 0.00 0.00 1016.0
20260507051913 59 202 1.0 1.0 0.00 0.00 0.00 1015.7
20260507051213 59 202 1.0 2.0 0.00 0.00 0.00 1015.9
20260507051113 59 225 0.0 1.0 0.00 0.00 0.00 1015.6
20260507051013 60 202 0.0 1.0 0.00 0.00 0.00 1015.7
20260507050013 60 202 3.0 4.0 0.00 0.00 0.00 1015.6
20260507045913 60 225 2.0 3.0 0.00 0.00 0.00 1016.0
20260507044913 60 202 1.0 1.0 0.00 0.00 0.00 1015.8
20260507044813 60 180 2.0 3.0 0.00 0.00 0.00 1015.8
20260507044713 60 202 2.0 2.0 0.00 0.00 0.00 1015.7
20260507043713 60 225 2.0 2.0 0.00 0.00 0.00 1015.7
20260507043314 61 180 1.0 1.0 0.00 0.00 0.00 1015.6
20260507043213 61 202 1.0 1.0 0.00 0.00 0.00 1015.6
20260507042814 61 180 0.0 1.0 0.00 0.00 0.00 1015.6
20260507042413 61 247 0.0 2.0 0.00 0.00 0.00 1015.7
20260507042313 61 202 2.0 3.0 0.00 0.00 0.00 1015.7
20260507042213 61 225 2.0 2.0 0.00 0.00 0.00 1015.8